Tracking 28908 objects as of 21-May-2024
HD Live streaming from Space Station
objects crossing your sky now

STARLINK-5970

Track STARLINK-5970 now!
10-day predictions
STARLINK-5970 is classified as:


NORAD ID: 56450
Int'l Code: 2023-064C
Perigee: 576.9 km
Apogee: 581.4 km
Inclination: 70.0 °
Period: 96.1 minutes
Semi major axis: 6950 km
RCS: Unknown
Launch date: May 10, 2023
Source: United States (US)
Launch site: AIR FORCE WESTERN TEST RANGE (AFWTR)
Your satellite tracking list
Your tracking list is empty




NASA's NSSDC Master Catalog

Two Line Element Set (TLE):
1 56450U 23064C   24141.82835129 -.00000442  00000-0 -29235-4 0  9992
2 56450  69.9999   3.2046 0003265 276.6207  83.4580 14.98334753 57067
Source of the keplerian elements: AFSPC